{"data":{"norad_id":49330,"epoch":"2026-05-24T21:21:16.247232Z","epoch_age_seconds":77759,"freshness":"FRESH","line1":"1 49330U 21094A   26144.88977138 -.00000351  00000+0  00000+0 0  9991","line2":"2 49330   5.0604  61.3198 0048158 168.8087 100.4094  1.00264306  5126","mean_motion":1.00264306,"eccentricity":0.0048158,"inclination_deg":5.0604,"raan_deg":61.3198,"arg_perigee_deg":168.8087,"mean_anomaly_deg":100.4094,"bstar":0,"rev_number":512,"period_min":1436.2040265855,"perigee_km":35585.624712931,"apogee_km":35991.758740496,"semimajor_km":42166.828726714,"source":"CELESTRAK","updated_at":"2026-05-25T13:38:14.102397Z"}}